SCP
0 -0 -0 -0 -0 -0 -0 -0 -0 -0 -0 -0 -0 -0 -0 -0 -0 -0 -0 -0 -0 -0 -0 0 0 0 0 0 0 0 0 0 0 0 0 -0 -0 -0 -0 -0 -0 -0 0
-0 -0 -0 -0 -0 -0 -0 -0 -0 -0 -0 -0 -0 -0 -0 -0 -0 -0 -0 -0 -0 -0 -0 -0 -0 -0 0 0 0 0 0 0 0 0 0 -0 -0 -0 -0 0 -0 -0 0
-0 -0 -0 -0 -0 -0 -0 -0 -0 -0 -0 -0 -0 -0 -0 -0 -0 -0 -0 -0 -0 0 0 -0 -0 -0 0 0 0 0 0 0 0 0 0 0 0 0 -0 0 0 -0 0
0 -0 -0 -0 -0 -0 -0 -0 -0 -0 -0 -0 -0 -0 -0 -0 -0 -0 -0 0 0 0 0 0 0 0 0 0 0 0 0 0 0 0 0 0 0 0 0 0 0 0 0
0 0 0 0 -0 -0 -0 -0 -0 -0 -0 -0 -0 -0 -0 0 0 0 0 0 0 0 0 0 0 0 0 0 0 0 0 0 0 0 0 0 0 0 0 0 0 0 0
0 0 0 0 0 0 0 0 0 -0 -0 -0 0 0 -0 -0 -0 0 0 0 0 0 0 0 0 0 0 0 0 0 0 0 0 0 0 0 0 0 0 0 0 0 0
0 0 0 0 0 0 0 0 0 0 0 0 0 0 0 0 0 0 0 0 0 0 0 0 0 0 0 0 0 0 0 0 0 0 0 0 0 0 0 0 0 0 0
0 0 0 0 0 0 0 0 0 0 0 0 0 0 0 0 0 0 0 0 0 0 0 0 0 0 0 0 0 0 0 0 0 0 0 0 0 0 0 0 1 0 0
0 0 0 0 0 0 0 0 0 0 0 0 0 0 0 0 0 0 0 0 0 0 0 0 0 0 0 0 0 0 0 0 0 0 0 0 0 0 0 0 1 1 0
0 0 0 0 0 0 0 0 0 0 0 0 0 0 0 0 0 0 0 0 0 0 0 0 0 0 0 0 0 0 0 0 0 0 0 0 0 0 0 0 0 1 1
0 0 0 0 0 0 0 0 0 0 0 0 0 0 0 0 0 0 0 0 0 0 0 0 0 0 0 0 0 0 0 0 0 0 0 0 0 0 0 0 0 1 1
0 0 0 0 0 0 0 0 0 0 0 0 0 0 0 0 0 0 0 0 0 0 0 0 0 0 0 0 0 0 0 0 0 0 0 0 0 0 0 0 0 0 1
0 0 0 0 0 0 0 0 0 0 0 0 0 0 0 0 0 0 0 0 0 0 0 0 0 0 0 0 0 0 0 0 0 0 0 0 0 0 0 0 0 1 1
0 0 0 0 0 0 0 0 0 0 0 0 0 0 0 0 0 0 0 0 0 0 0 0 0 0 0 0 0 0 0 0 0 0 0 0 0 0 0 0 0 1 1
0 0 0 0 0 0 0 0 0 0 0 0 0 0 0 0 0 0 0 0 0 0 0 0 0 0 0 0 0 0 0 0 0 0 0 0 0 0 0 0 0 0 1
0 0 0 0 0 0 0 0 0 0 0 0 0 0 0 0 0 0 0 0 0 0 0 0 0 0 0 0 0 0 0 0 0 0 0 0 0 0 0 0 0 0 0
0 0 0 0 0 0 0 0 0 0 0 0 0 0 0 0 0 0 0 0 0 0 0 -0 -0 -0 -0 0 0 0 0 0 0 0 0 0 0 0 0 0 0 0 0
0 0 0 0 0 0 0 0 0 0 0 0 0 0 0 0 0 0 0 0 0 0 0 0 -0 -0 -0 -0 0 0 0 0 0 0 0 0 0 0 0 0 0 0 0
0 0 0 0 0 0 0 0 0 0 0 0 0 0 0 0 0 0 0 0 0 0 0 0 0 -0 -0 -0 -0 0 0 0 -0 -0 0 0 0 0 0 0 0 0 0
0 0 0 0 0 0 0 0 0 0 0 0 0 0 0 0 0 0 0 0 0 0 0 0 0 0 0 -0 -0 -0 -0 0 -0 -0 -0 -0 -0 0 0 0 0 0 0
0 0 0 0 0 0 0 0 0 0 0 0 0 0 0 0 0 0 0 0 0 0 0 0 0 0 0 0 -0 -0 -0 -0 -0 -0 -0 -0 -0 -0 -0 0 0 0 0
0 0 0 0 0 0 0 0 0 0 0 0 0 0 0 0 0 0 0 0 0 0 0 0 0 0 0 0 -0 -0 -0 -0 -0 0 0 0 -0 0 -0 -0 -0 0 0
0 0 0 0 0 0 0 0 0 0 0 0 0 0 0 0 0 0 0 0 0 0 0 0 0 0 0 0 0 0 0 0 -0 -0 0 -0 -0 -0 -0 -0 -0 0 0
0 0 0 0 0 0 0 0 0 0 0 0 0 0 0 0 0 0 0 0 0 0 0 0 0 0 0 0 0 0 0 0 0 0 0 0 0 0 -0 -0 -0 -0 -0
0 0 0 0 0 0 0 0 0 0 0 0 0 0 0 0 0 0 0 0 0 0 0 0 0 0 0 0 0 0 0 0 0 0 0 0 0 0 0 -0 -0 -0 -0
0 0 0 0 0 0 0 0 0 0 0 0 0 0 0 0 0 0 0 0 0 0 0 0 0 0 0 0 0 0 0 0 0 0 0 0 0 0 0 0 0 -0 -0
Wind_Speed_500mb
2 1 2 2 5 0 5 10 12 11 12 11 11 11 10 9 9 10 10 11 12 13 15 17 18 18 17 21 21 21 23 23 24 26 23 22 23 24 24 25 24 23 23
10 4 3 5 6 5 4 3 7 11 13 15 16 17 16 15 15 14 14 15 17 16 14 15 16 20 22 19 21 23 24 27 28 28 30 30 28 26 26 28 26 25 25
7 2 4 6 9 11 12 13 13 15 16 18 19 20 21 22 22 23 23 22 22 22 21 20 20 19 20 25 24 23 26 27 30 32 32 34 26 34 28 32 26 28 29
5 2 6 7 7 10 12 14 17 20 21 23 24 26 27 27 30 31 30 28 29 29 29 27 27 27 26 27 27 27 24 29 29 33 33 26 28 34 32 32 29 29 30
7 6 8 5 7 9 10 12 18 22 24 27 29 30 33 34 31 29 31 35 36 36 36 36 38 36 34 33 33 32 31 29 32 33 33 34 29 32 33 34 31 32 31
13 12 6 3 5 3 3 5 9 11 17 20 23 26 31 34 37 35 36 37 38 39 41 41 43 43 43 43 41 39 38 35 35 30 30 33 38 40 39 37 36 34 34
19 14 10 6 4 6 8 9 10 11 14 17 20 21 26 28 31 34 37 39 42 42 42 42 46 46 45 46 49 48 45 45 43 39 33 34 36 42 43 40 41 40 39
23 18 11 10 11 11 12 13 14 15 16 17 19 21 25 28 31 33 37 39 41 43 45 49 51 50 49 50 51 51 52 53 51 42 38 37 39 42 45 45 44 46 45
25 19 16 15 14 14 14 13 13 14 15 16 17 19 21 25 29 32 37 40 45 46 44 47 50 55 56 56 55 55 56 56 57 58 52 44 44 49 45 49 49 51 52
30 27 25 23 21 17 14 13 9 7 7 9 11 13 16 19 22 26 30 34 39 42 43 46 51 52 52 57 61 61 60 58 55 55 48 49 61 57 52 50 53 54 56
39 36 33 31 26 22 19 15 11 8 7 6 7 9 13 17 21 25 28 32 36 38 41 43 44 46 51 56 58 64 64 64 68 65 49 46 64 65 64 60 55 59 59
47 44 39 34 29 26 22 17 12 9 6 4 5 8 13 17 22 27 29 31 32 36 39 42 44 44 45 48 53 59 61 67 70 71 72 64 65 69 70 69 65 62 65
50 48 43 37 31 27 23 18 15 11 8 7 8 12 16 21 26 29 32 34 36 37 37 39 41 43 45 46 47 48 52 60 67 74 79 79 79 78 74 74 73 69 69
57 51 45 39 33 28 23 20 15 13 10 10 12 14 18 23 28 31 34 37 39 41 41 43 44 46 46 47 49 50 50 52 56 67 76 78 83 81 82 80 78 76 73
62 56 50 44 37 32 28 23 20 16 13 13 15 17 20 25 29 33 36 39 42 45 47 48 48 49 50 54 56 56 54 54 58 61 67 77 80 83 84 81 83 84 79
65 61 56 48 41 35 30 27 24 19 16 16 18 19 21 26 31 37 40 43 46 49 52 53 55 57 57 58 57 60 64 65 60 61 66 70 76 81 85 86 84 86 90
71 65 59 52 45 39 36 35 28 22 18 19 20 20 24 29 34 38 42 46 51 55 59 61 62 63 65 66 67 67 67 68 73 71 67 70 73 79 82 90 91 87 90
73 70 63 56 50 45 42 37 29 22 21 21 20 21 24 30 34 38 43 47 51 56 59 63 66 69 70 71 74 75 77 78 76 78 79 76 76 76 83 85 92 97 93
76 69 63 57 53 48 42 37 30 25 25 23 22 21 25 29 33 39 44 50 53 57 60 64 66 70 75 77 78 81 83 85 84 81 82 84 82 83 83 85 91 92 103
77 71 65 61 57 50 44 40 35 32 30 26 22 23 26 31 37 42 47 53 55 58 62 66 68 67 70 71 82 91 83 84 83 77 71 71 76 77 76 80 85 97 95
78 74 70 67 60 53 49 46 44 40 35 30 26 24 26 32 38 44 49 51 56 59 64 67 69 71 66 71 84 91 96 61 58 64 47 55 68 79 90 88 81 83 98
85 80 75 70 64 58 57 55 52 46 40 33 28 24 28 34 39 46 49 49 55 62 64 67 70 71 69 63 61 69 48 90 15 46 85 75 64 72 70 63 69 81 86
90 86 82 73 68 65 62 59 56 50 42 34 29 29 32 34 41 44 45 50 55 62 66 69 70 70 72 67 59 40 33 34 88 76 70 83 57 63 70 80 90 77 81
92 88 83 77 71 69 65 61 59 52 43 36 34 33 34 37 40 44 46 50 59 64 69 72 73 73 73 72 61 53 50 57 37 77 86 78 94 78 84 80 82 90 102
79 88 84 79 76 73 68 62 58 52 44 40 36 34 36 38 41 45 47 53 60 66 69 72 73 76 76 75 67 63 63 64 60 59 101 106 82 82 94 97 77 88 93
64 82 86 84 82 77 72 65 59 51 44 41 37 37 38 41 43 45 48 58 64 68 71 75 76 76 78 79 74 70 65 50 51 54 66 112 103 111 95 108 105 96 94
Wind_Direction_500mb
202 302 15 99 64 217 222 250 241 245 239 244 261 270 276 279 282 286 299 301 301 301 311 318 321 313 306 298 292 287 287 286 286 284 282 281 279 285 285 283 275 266 261
192 205 316 282 237 229 203 176 229 227 229 233 242 249 256 257 260 261 268 268 273 284 289 297 300 311 313 307 299 290 280 284 284 280 281 279 274 272 281 280 277 262 262
186 121 281 267 263 273 267 253 237 229 231 237 246 253 260 265 265 263 260 263 261 264 272 275 280 284 292 300 302 295 290 279 277 281 277 280 278 275 270 274 277 270 257
174 56 313 323 301 277 267 264 258 255 261 266 271 270 271 271 272 280 281 279 276 273 269 270 272 275 278 278 286 295 294 292 285 279 277 279 277 272 260 268 273 269 260
179 215 253 297 291 282 279 276 264 263 266 271 277 282 286 284 282 285 287 285 283 279 277 276 273 269 270 272 275 280 286 282 285 284 283 273 273 272 269 266 267 266 261
191 197 195 211 250 287 325 290 276 272 272 273 277 280 278 282 286 283 277 275 278 280 281 280 280 279 277 274 272 271 274 276 276 283 283 282 269 268 272 265 265 258 260
187 183 185 215 284 304 303 297 295 287 279 279 278 282 284 287 290 292 290 286 281 275 273 275 277 277 276 275 272 271 268 269 272 271 276 276 275 264 267 262 259 257 252
194 203 214 247 269 284 292 292 294 294 294 293 294 296 299 301 300 298 295 292 292 290 284 278 273 272 271 272 273 273 271 272 270 273 271 273 271 267 263 262 255 256 251
206 217 229 240 245 253 264 275 280 289 301 309 315 321 323 320 318 315 312 310 303 297 291 284 280 276 273 270 270 271 272 272 273 274 272 271 270 262 265 260 257 253 252
212 216 222 227 232 236 241 246 254 271 300 314 323 332 336 336 332 328 324 320 318 316 310 298 290 286 281 275 273 271 271 273 276 273 273 270 268 264 260 260 256 253 251
212 216 219 222 225 229 234 233 233 248 272 300 330 339 335 334 333 333 332 332 329 325 321 317 312 303 290 281 278 275 273 269 269 269 272 269 269 268 262 257 254 252 251
213 216 217 218 220 222 224 224 226 228 242 269 297 321 333 334 332 332 332 331 329 327 325 321 316 312 308 301 292 282 278 274 271 270 268 264 270 267 264 260 255 250 250
216 216 216 217 218 219 221 224 228 234 247 269 303 322 328 332 331 330 329 330 330 330 328 327 325 324 321 315 308 300 291 282 279 278 272 271 271 270 264 261 257 251 249
216 219 219 220 222 224 225 227 233 244 262 289 305 314 320 325 327 326 326 327 329 331 331 329 327 325 323 320 316 311 303 295 287 279 276 273 268 269 269 265 258 254 249
219 220 221 221 221 224 225 229 238 244 255 276 289 300 313 318 322 324 326 328 328 328 326 324 324 323 321 318 317 313 308 302 295 287 282 277 273 269 265 264 261 255 251
220 221 221 222 224 226 228 232 237 240 253 272 287 297 306 316 322 327 327 326 325 323 322 322 321 319 317 315 312 311 309 306 301 296 290 284 278 270 267 266 260 257 253
222 222 223 224 225 225 226 230 232 241 257 273 283 295 310 320 321 322 322 321 321 320 322 321 319 317 316 314 313 310 306 305 303 300 294 290 283 278 271 263 263 259 255
223 223 222 223 225 225 227 229 231 241 255 269 281 296 308 312 315 317 317 318 319 320 319 317 317 317 316 316 315 313 311 308 304 300 297 294 289 283 278 273 263 258 258
223 221 222 223 225 228 230 232 234 242 249 258 268 287 300 307 313 314 317 316 316 317 317 317 318 319 319 318 315 313 313 309 306 302 298 297 293 288 283 276 271 263 258
223 222 223 226 228 229 230 232 233 238 243 250 264 280 298 309 313 315 313 312 317 320 321 321 321 320 319 318 316 316 314 310 308 304 302 298 295 293 287 281 273 268 263
224 223 224 225 228 227 229 229 230 233 236 245 256 279 300 307 308 311 311 314 318 320 320 319 319 319 317 318 319 315 316 322 313 313 305 306 305 301 297 288 283 275 267
227 225 225 225 228 229 231 231 230 230 234 243 255 279 293 296 307 308 307 317 318 314 315 315 317 315 314 315 316 317 321 314 315 287 299 295 291 294 296 290 289 283 273
225 226 227 227 230 232 231 231 231 232 237 246 260 274 285 303 302 300 309 315 312 310 311 312 312 310 308 307 307 296 311 296 313 307 289 305 302 291 288 285 288 279 279
229 227 228 229 230 232 232 232 231 233 238 246 257 275 290 293 298 305 307 309 306 308 311 308 306 303 300 298 295 289 277 281 297 305 292 288 294 294 291 292 281 277 282
229 230 228 229 230 232 233 233 233 237 243 252 264 277 286 294 300 299 305 309 308 306 303 302 300 297 294 289 286 282 279 280 270 267 286 292 288 287 284 293 288 276 278
229 231 228 229 230 232 231 232 234 239 245 256 269 277 289 293 295 303 310 307 304 303 303 301 297 293 291 289 285 281 276 264 264 262 264 280 286 287 283 282 276 273 274
Wind_Speed_850mb
2 1 2 2 5 0 5 10 12 11 12 11 11 11 10 9 9 10 10 11 12 13 15 17 18 18 17 21 21 21 23 23 24 26 23 22 23 24 24 25 24 23 23
10 4 3 5 6 5 4 3 7 11 13 15 16 17 16 15 15 14 14 15 17 16 14 15 16 20 22 19 21 23 24 27 28 28 30 30 28 26 26 28 26 25 25
7 2 4 6 9 11 12 13 13 15 16 18 19 20 21 22 22 23 23 22 22 22 21 20 20 19 20 25 24 23 26 27 30 32 32 34 26 34 28 32 26 28 29
5 2 6 7 7 10 12 14 17 20 21 23 24 26 27 27 30 31 30 28 29 29 29 27 27 27 26 27 27 27 24 29 29 33 33 26 28 34 32 32 29 29 30
7 6 8 5 7 9 10 12 18 22 24 27 29 30 33 34 31 29 31 35 36 36 36 36 38 36 34 33 33 32 31 29 32 33 33 34 29 32 33 34 31 32 31
13 12 6 3 5 3 3 5 9 11 17 20 23 26 31 34 37 35 36 37 38 39 41 41 43 43 43 43 41 39 38 35 35 30 30 33 38 40 39 37 36 34 34
19 14 10 6 4 6 8 9 10 11 14 17 20 21 26 28 31 34 37 39 42 42 42 42 46 46 45 46 49 48 45 45 43 39 33 34 36 42 43 40 41 40 39
23 18 11 10 11 11 12 13 14 15 16 17 19 21 25 28 31 33 37 39 41 43 45 49 51 50 49 50 51 51 52 53 51 42 38 37 39 42 45 45 44 46 45
25 19 16 15 14 14 14 13 13 14 15 16 17 19 21 25 29 32 37 40 45 46 44 47 50 55 56 56 55 55 56 56 57 58 52 44 44 49 45 49 49 51 52
30 27 25 23 21 17 14 13 9 7 7 9 11 13 16 19 22 26 30 34 39 42 43 46 51 52 52 57 61 61 60 58 55 55 48 49 61 57 52 50 53 54 56
39 36 33 31 26 22 19 15 11 8 7 6 7 9 13 17 21 25 28 32 36 38 41 43 44 46 51 56 58 64 64 64 68 65 49 46 64 65 64 60 55 59 59
47 44 39 34 29 26 22 17 12 9 6 4 5 8 13 17 22 27 29 31 32 36 39 42 44 44 45 48 53 59 61 67 70 71 72 64 65 69 70 69 65 62 65
50 48 43 37 31 27 23 18 15 11 8 7 8 12 16 21 26 29 32 34 36 37 37 39 41 43 45 46 47 48 52 60 67 74 79 79 79 78 74 74 73 69 69
57 51 45 39 33 28 23 20 15 13 10 10 12 14 18 23 28 31 34 37 39 41 41 43 44 46 46 47 49 50 50 52 56 67 76 78 83 81 82 80 78 76 73
62 56 50 44 37 32 28 23 20 16 13 13 15 17 20 25 29 33 36 39 42 45 47 48 48 49 50 54 56 56 54 54 58 61 67 77 80 83 84 81 83 84 79
65 61 56 48 41 35 30 27 24 19 16 16 18 19 21 26 31 37 40 43 46 49 52 53 55 57 57 58 57 60 64 65 60 61 66 70 76 81 85 86 84 86 90
71 65 59 52 45 39 36 35 28 22 18 19 20 20 24 29 34 38 42 46 51 55 59 61 62 63 65 66 67 67 67 68 73 71 67 70 73 79 82 90 91 87 90
73 70 63 56 50 45 42 37 29 22 21 21 20 21 24 30 34 38 43 47 51 56 59 63 66 69 70 71 74 75 77 78 76 78 79 76 76 76 83 85 92 97 93
76 69 63 57 53 48 42 37 30 25 25 23 22 21 25 29 33 39 44 50 53 57 60 64 66 70 75 77 78 81 83 85 84 81 82 84 82 83 83 85 91 92 103
77 71 65 61 57 50 44 40 35 32 30 26 22 23 26 31 37 42 47 53 55 58 62 66 68 67 70 71 82 91 83 84 83 77 71 71 76 77 76 80 85 97 95
78 74 70 67 60 53 49 46 44 40 35 30 26 24 26 32 38 44 49 51 56 59 64 67 69 71 66 71 84 91 96 61 58 64 47 55 68 79 90 88 81 83 98
85 80 75 70 64 58 57 55 52 46 40 33 28 24 28 34 39 46 49 49 55 62 64 67 70 71 69 63 61 69 48 90 15 46 85 75 64 72 70 63 69 81 86
90 86 82 73 68 65 62 59 56 50 42 34 29 29 32 34 41 44 45 50 55 62 66 69 70 70 72 67 59 40 33 34 88 76 70 83 57 63 70 80 90 77 81
92 88 83 77 71 69 65 61 59 52 43 36 34 33 34 37 40 44 46 50 59 64 69 72 73 73 73 72 61 53 50 57 37 77 86 78 94 78 84 80 82 90 102
79 88 84 79 76 73 68 62 58 52 44 40 36 34 36 38 41 45 47 53 60 66 69 72 73 76 76 75 67 63 63 64 60 59 101 106 82 82 94 97 77 88 93
64 82 86 84 82 77 72 65 59 51 44 41 37 37 38 41 43 45 48 58 64 68 71 75 76 76 78 79 74 70 65 50 51 54 66 112 103 111 95 108 105 96 94
Wind_Direction_850mb
202 302 15 99 64 217 222 250 241 245 239 244 261 270 276 279 282 286 299 301 301 301 311 318 321 313 306 298 292 287 287 286 286 284 282 281 279 285 285 283 275 266 261
192 205 316 282 237 229 203 176 229 227 229 233 242 249 256 257 260 261 268 268 273 284 289 297 300 311 313 307 299 290 280 284 284 280 281 279 274 272 281 280 277 262 262
186 121 281 267 263 273 267 253 237 229 231 237 246 253 260 265 265 263 260 263 261 264 272 275 280 284 292 300 302 295 290 279 277 281 277 280 278 275 270 274 277 270 257
174 56 313 323 301 277 267 264 258 255 261 266 271 270 271 271 272 280 281 279 276 273 269 270 272 275 278 278 286 295 294 292 285 279 277 279 277 272 260 268 273 269 260
179 215 253 297 291 282 279 276 264 263 266 271 277 282 286 284 282 285 287 285 283 279 277 276 273 269 270 272 275 280 286 282 285 284 283 273 273 272 269 266 267 266 261
191 197 195 211 250 287 325 290 276 272 272 273 277 280 278 282 286 283 277 275 278 280 281 280 280 279 277 274 272 271 274 276 276 283 283 282 269 268 272 265 265 258 260
187 183 185 215 284 304 303 297 295 287 279 279 278 282 284 287 290 292 290 286 281 275 273 275 277 277 276 275 272 271 268 269 272 271 276 276 275 264 267 262 259 257 252
194 203 214 247 269 284 292 292 294 294 294 293 294 296 299 301 300 298 295 292 292 290 284 278 273 272 271 272 273 273 271 272 270 273 271 273 271 267 263 262 255 256 251
206 217 229 240 245 253 264 275 280 289 301 309 315 321 323 320 318 315 312 310 303 297 291 284 280 276 273 270 270 271 272 272 273 274 272 271 270 262 265 260 257 253 252
212 216 222 227 232 236 241 246 254 271 300 314 323 332 336 336 332 328 324 320 318 316 310 298 290 286 281 275 273 271 271 273 276 273 273 270 268 264 260 260 256 253 251
212 216 219 222 225 229 234 233 233 248 272 300 330 339 335 334 333 333 332 332 329 325 321 317 312 303 290 281 278 275 273 269 269 269 272 269 269 268 262 257 254 252 251
213 216 217 218 220 222 224 224 226 228 242 269 297 321 333 334 332 332 332 331 329 327 325 321 316 312 308 301 292 282 278 274 271 270 268 264 270 267 264 260 255 250 250
216 216 216 217 218 219 221 224 228 234 247 269 303 322 328 332 331 330 329 330 330 330 328 327 325 324 321 315 308 300 291 282 279 278 272 271 271 270 264 261 257 251 249
216 219 219 220 222 224 225 227 233 244 262 289 305 314 320 325 327 326 326 327 329 331 331 329 327 325 323 320 316 311 303 295 287 279 276 273 268 269 269 265 258 254 249
219 220 221 221 221 224 225 229 238 244 255 276 289 300 313 318 322 324 326 328 328 328 326 324 324 323 321 318 317 313 308 302 295 287 282 277 273 269 265 264 261 255 251
220 221 221 222 224 226 228 232 237 240 253 272 287 297 306 316 322 327 327 326 325 323 322 322 321 319 317 315 312 311 309 306 301 296 290 284 278 270 267 266 260 257 253
222 222 223 224 225 225 226 230 232 241 257 273 283 295 310 320 321 322 322 321 321 320 322 321 319 317 316 314 313 310 306 305 303 300 294 290 283 278 271 263 263 259 255
223 223 222 223 225 225 227 229 231 241 255 269 281 296 308 312 315 317 317 318 319 320 319 317 317 317 316 316 315 313 311 308 304 300 297 294 289 283 278 273 263 258 258
223 221 222 223 225 228 230 232 234 242 249 258 268 287 300 307 313 314 317 316 316 317 317 317 318 319 319 318 315 313 313 309 306 302 298 297 293 288 283 276 271 263 258
223 222 223 226 228 229 230 232 233 238 243 250 264 280 298 309 313 315 313 312 317 320 321 321 321 320 319 318 316 316 314 310 308 304 302 298 295 293 287 281 273 268 263
224 223 224 225 228 227 229 229 230 233 236 245 256 279 300 307 308 311 311 314 318 320 320 319 319 319 317 318 319 315 316 322 313 313 305 306 305 301 297 288 283 275 267
227 225 225 225 228 229 231 231 230 230 234 243 255 279 293 296 307 308 307 317 318 314 315 315 317 315 314 315 316 317 321 314 315 287 299 295 291 294 296 290 289 283 273
225 226 227 227 230 232 231 231 231 232 237 246 260 274 285 303 302 300 309 315 312 310 311 312 312 310 308 307 307 296 311 296 313 307 289 305 302 291 288 285 288 279 279
229 227 228 229 230 232 232 232 231 233 238 246 257 275 290 293 298 305 307 309 306 308 311 308 306 303 300 298 295 289 277 281 297 305 292 288 294 294 291 292 281 277 282
229 230 228 229 230 232 233 233 233 237 243 252 264 277 286 294 300 299 305 309 308 306 303 302 300 297 294 289 286 282 279 280 270 267 286 292 288 287 284 293 288 276 278
229 231 228 229 230 232 231 232 234 239 245 256 269 277 289 293 295 303 310 307 304 303 303 301 297 293 291 289 285 281 276 264 264 262 264 280 286 287 283 282 276 273 274